Location: Arclight Observatory
(36.5667°N, 87.3333°W)
Time: 20:34:23
(UTC-06:00)

ISS - Visible Passes

Search period start: 22 February 2017 00:00
Search period end: 04 March 2017 00:00
Orbit: 399 x 408 km, 51.6° (Epoch: 23 February)

Date Brightness Start Highest point End Pass type
(mag) Time Alt. Az. Time Alt. Az. Time Alt. Az.
01 Mar -1.1 05:02:56 10° S 05:05:38 24° SE 05:08:22 10° ENE visible
02 Mar -0.3 04:12:37 11° SE 04:13:16 12° SE 04:14:33 10° ESE visible
02 Mar -3.2 05:46:06 10° WSW 05:49:20 56° NW 05:52:35 10° NE visible
03 Mar -3.1 04:55:29 33° SSW 04:56:44 67° SE 05:00:01 10° NE visible
